[[{"header":{"parameterUnit":"m.s-1","parameterCategory":1,"la1":30.2992,"la2":30.254,"lo1":-89.0895,"lo2":-89.0443,"dy":0.0025,"dx":0.0025,"nx":19,"ny":19,"refTime":"2026-04-03T09:00:00:Z","depth":0,"parameterNumber":2,"parameterNumberName":"U-component_of_WINDS"},"data":[0,0,0,-1.0575,-1.0574,-1.0555,-1.0554,-1.0531,-1.0531,0,0,0,0,0,0,0,0,0,0,0,-1.0582,-1.0582,-1.0575,-1.0574,-1.0555,-1.0554,-1.0531,-1.0531,0,0,0,0,0,0,0,0,0,0,0,-1.0582,-1.0582,-1.0582,-1.0574,-1.0555,-1.0554,-1.0531,-1.0545,0,0,0,0,0,0,0,0,0,0,-1.0564,-1.0573,-1.0582,-1.0582,-1.0574,-1.0555,-1.0554,-1.0546,-1.0544,-1.0541,0,-1.0539,0,-1.0535,-1.053,-1.053,0,0,0,-1.0573,-1.0574,-1.0567,-1.0582,-1.0574,-1.0555,-1.0563,-1.0545,-1.0543,-1.0539,-1.0539,-1.0538,-1.0534,-1.053,-1.0529,-1.0517,-1.0517,0,0,-1.0574,-1.0579,-1.0568,-1.0566,-1.057,-1.0564,-1.0562,-1.0544,-1.0544,-1.0539,-1.0537,-1.0534,-1.0529,-1.0529,-1.0517,-1.0517,0,0,0,-1.0578,-1.058,-1.0574,-1.0567,-1.0564,-1.0563,-1.0562,-1.0545,-1.0542,-1.0537,-1.0534,-1.0529,-1.0529,-1.0517,-1.0517,-1.0523,0,0,0,-1.0578,-1.0583,-1.0574,-1.0577,-1.0564,-1.0554,-1.0563,-1.0543,-1.0541,-1.0534,-1.0529,-1.0529,-1.0517,-1.0517,-1.0523,-1.0525,0,0,0,-1.0583,-1.0583,-1.0581,-1.0578,-1.057,-1.0554,-1.0551,-1.0543,-1.0539,-1.053,-1.0529,-1.0517,-1.0517,-1.0523,-1.0525,-1.0524,0,0,0,-1.0589,-1.0586,-1.0581,-1.0577,-1.057,-1.0558,-1.0551,-1.0542,-1.0534,-1.0529,-1.0517,-1.0517,-1.0523,-1.0525,-1.0523,-1.0524,-1.0524,0,0,-1.0588,-1.0586,-1.0583,-1.0578,-1.0569,-1.0561,-1.0553,-1.054,-1.0534,-1.0523,-1.0522,-1.0523,-1.0525,-1.0524,-1.0526,-1.0527,0,0,0,-1.0585,-1.0583,-1.0579,-1.0573,-1.0564,-1.0556,-1.0545,-1.054,-1.0531,-1.053,-1.0522,-1.0523,-1.0522,-1.0522,-1.0522,-1.0521,-1.0517,-1.0517,-1.0517,-1.0592,-1.0585,-1.0579,-1.057,-1.0564,-1.0553,-1.0547,-1.0539,-1.0532,-1.0531,-1.0528,-1.053,-1.053,-1.053,-1.0529,-1.0527,-1.0527,-1.0527,-1.0527,-1.0591,-1.0587,-1.058,-1.0572,-1.0564,-1.0558,-1.0546,-1.0543,-1.0535,-1.0532,-1.0531,-1.0528,-1.0531,-1.053,-1.0528,-1.0528,-1.0528,-1.0527,-1.0527,-1.0594,-1.0591,-1.0586,-1.0577,-1.057,-1.056,-1.0554,-1.0547,-1.054,-1.0539,-1.0535,-1.0535,-1.0533,-1.0538,-1.0538,-1.0538,-1.0538,-1.0538,-1.0538,-1.06,-1.0594,-1.059,-1.058,-1.0576,-1.0568,-1.0557,-1.0552,-1.0545,-1.054,-1.054,-1.0534,-1.0533,-1.0533,-1.0538,-1.0538,-1.0538,-1.0538,-1.0538,-1.0601,-1.06,-1.0593,-1.0588,-1.0577,-1.0571,-1.0562,-1.0553,-1.0548,-1.0545,-1.0539,-1.0539,-1.0536,-1.0536,-1.0536,-1.0541,-1.0541,-1.0541,-1.0541,-1.0604,-1.0602,-1.0593,-1.0586,-1.0579,-1.0571,-1.0563,-1.0554,-1.0545,-1.0542,-1.054,-1.0539,-1.0539,-1.0536,-1.0536,-1.0535,-1.054,-1.054,-1.054,-1.0604,-1.0601,-1.0596,-1.0588,-1.0579,-1.0571,-1.0563,-1.0555,-1.0545,-1.054,-1.0539,-1.0539,-1.0537,-1.0537,-1.0532,-1.0531,-1.0531,0,0]},{"header":{"parameterUnit":"m.s-1","parameterCategory":1,"la1":30.2992,"la2":30.254,"lo1":-89.0895,"lo2":-89.0443,"dy":0.0025,"dx":0.0025,"nx":19,"ny":19,"refTime":"2026-04-03T09:00:00:Z","depth":0,"parameterNumber":3,"parameterNumberName":"V-component_of_WINDS"},"data":[0,0,0,3.4193,3.4194,3.423,3.423,3.4285,3.4286,0,0,0,0,0,0,0,0,0,0,0,3.4188,3.4189,3.4193,3.4194,3.423,3.423,3.4285,3.4286,0,0,0,0,0,0,0,0,0,0,0,3.4188,3.4189,3.419,3.4194,3.423,3.423,3.4285,3.4254,0,0,0,0,0,0,0,0,0,0,3.4217,3.422,3.4189,3.419,3.4194,3.423,3.423,3.4252,3.4256,3.4273,0,3.429,0,3.4289,3.429,3.429,0,0,0,3.4189,3.4217,3.4221,3.419,3.4195,3.423,3.4212,3.4254,3.4258,3.4277,3.4291,3.4293,3.429,3.429,3.4291,3.4407,3.4407,0,0,3.4187,3.4198,3.4218,3.4224,3.422,3.4211,3.4213,3.4257,3.4272,3.4291,3.4294,3.4291,3.4291,3.4291,3.4406,3.4407,0,0,0,3.4184,3.4197,3.42,3.4222,3.4228,3.4212,3.4215,3.427,3.427,3.4294,3.4291,3.4291,3.4292,3.4405,3.4406,3.4457,0,0,0,3.4183,3.4196,3.4199,3.4207,3.4227,3.425,3.4227,3.4267,3.4271,3.4291,3.4291,3.4293,3.4404,3.4406,3.4453,3.4479,0,0,0,3.4184,3.4196,3.4203,3.4207,3.4223,3.4249,3.4251,3.4267,3.427,3.429,3.4293,3.4404,3.4405,3.4451,3.4474,3.4513,0,0,0,3.4188,3.4247,3.4204,3.4269,3.4223,3.428,3.425,3.4292,3.4315,3.4292,3.4404,3.4406,3.445,3.4471,3.451,3.4548,3.4565,0,0,3.4269,3.4257,3.4294,3.4257,3.4325,3.4273,3.4348,3.4358,3.4349,3.4388,3.439,3.4455,3.4473,3.4512,3.4656,3.4669,0,0,0,3.4324,3.4351,3.4366,3.4389,3.4399,3.4409,3.4407,3.4411,3.4443,3.4371,3.4479,3.4489,3.4512,3.4529,3.4541,3.4559,3.4415,3.4415,3.4414,3.4455,3.4441,3.4501,3.4491,3.4514,3.4511,3.4528,3.4533,3.4511,3.4536,3.4548,3.4637,3.4658,3.4667,3.4686,3.4567,3.4567,3.4567,3.4567,3.4572,3.4608,3.4578,3.4626,3.461,3.465,3.4649,3.4632,3.4667,3.4627,3.4646,3.4604,3.4682,3.4698,3.4571,3.457,3.457,3.4569,3.4569,3.4657,3.4671,3.4675,3.4708,3.4734,3.4721,3.4756,3.474,3.4725,3.4744,3.4754,3.4753,3.475,3.475,3.475,3.475,3.4751,3.4751,3.4751,3.4743,3.4746,3.4777,3.4793,3.4806,3.4821,3.4818,3.483,3.4839,3.4824,3.4824,3.48,3.4693,3.4666,3.4756,3.4755,3.4754,3.4754,3.4754,3.4868,3.4837,3.4886,3.4899,3.4915,3.4943,3.4922,3.4947,3.4955,3.4972,3.4944,3.4867,3.4853,3.4844,3.4822,3.4947,3.4947,3.4947,3.4947,3.494,3.4931,3.4978,3.5,3.5019,3.5005,3.506,3.5058,3.5051,3.5055,3.5034,3.5003,3.4995,3.4986,3.4974,3.4953,3.5108,3.5109,3.5109,3.5016,3.5009,3.5059,3.5053,3.5064,3.5074,3.5125,3.5151,3.5136,3.5115,3.5057,3.505,3.5,3.4985,3.4963,3.4944,3.4905,0,0]}]]